Time,TemperatureF,DewpointF,PressureIn,WindDirection,WindDirectionDegrees,WindSpeedMPH,WindSpeedGustMPH,Humidity,HourlyPrecipIn,Conditions,Clouds,dailyrainin,SolarRadiationWatts/m^2,SoftwareType,DateUTC
2013-08-18 00:02:00,73.0,58.0,-100.00,SE,141,1.0,5.0,59,-99.99,,,0.00,0.000000,,2013-08-18 05:02:00,
2013-08-18 00:42:00,75.0,58.0,-100.00,ENE,72,3.0,7.0,56,0.00,,,0.00,0.000000,,2013-08-18 05:42:00,
2013-08-18 00:52:00,75.0,58.0,-100.00,ENE,72,3.0,7.0,56,0.00,,,0.00,0.000000,,2013-08-18 05:52:00,
2013-08-18 01:01:00,75.0,58.0,-100.00,ENE,72,3.0,7.0,56,0.00,,,0.00,0.000000,,2013-08-18 06:01:00,
2013-08-18 01:42:00,74.0,57.0,-100.00,SE,145,3.0,8.0,56,0.00,,,0.00,0.000000,,2013-08-18 06:42:00,
2013-08-18 01:52:00,74.0,57.0,-100.00,SE,145,3.0,8.0,56,0.00,,,0.00,0.000000,,2013-08-18 06:52:00,
2013-08-18 02:01:00,74.0,57.0,-100.00,SE,145,3.0,8.0,56,0.00,,,0.00,0.000000,,2013-08-18 07:01:00,
2013-08-18 02:42:00,73.0,57.0,-100.00,ENE,78,4.0,8.0,58,0.00,,,0.00,0.000000,,2013-08-18 07:42:00,
2013-08-18 02:52:00,73.0,57.0,-100.00,ENE,78,4.0,8.0,58,0.00,,,0.00,0.000000,,2013-08-18 07:52:00,
2013-08-18 03:01:00,73.0,57.0,-100.00,ENE,78,4.0,8.0,58,0.00,,,0.00,0.000000,,2013-08-18 08:01:00,
2013-08-18 03:42:00,72.0,57.0,-100.00,SE,134,4.0,8.0,60,0.00,,,0.00,0.000000,,2013-08-18 08:42:00,
2013-08-18 03:52:00,72.0,57.0,-100.00,SE,134,4.0,8.0,60,0.00,,,0.00,0.000000,,2013-08-18 08:52:00,
2013-08-18 04:01:00,72.0,57.0,-100.00,SE,134,4.0,8.0,60,0.00,,,0.00,0.000000,,2013-08-18 09:01:00,
2013-08-18 04:43:00,72.0,58.0,-100.00,SSE,153,3.0,8.0,61,0.00,,,0.00,0.000000,,2013-08-18 09:43:00,
2013-08-18 04:53:00,72.0,58.0,-100.00,SSE,153,3.0,8.0,61,0.00,,,0.00,0.000000,,2013-08-18 09:53:00,
2013-08-18 05:03:00,72.0,58.0,-100.00,SSE,153,3.0,8.0,61,0.00,,,0.00,0.000000,,2013-08-18 10:03:00,
2013-08-18 05:43:00,71.0,58.0,-100.00,SE,137,4.0,9.0,63,0.00,,,0.00,1.000000,,2013-08-18 10:43:00,
2013-08-18 05:52:00,71.0,58.0,-100.00,SE,137,4.0,9.0,63,0.00,,,0.00,1.000000,,2013-08-18 10:52:00,
2013-08-18 06:02:00,71.0,58.0,-100.00,SE,137,4.0,9.0,63,0.00,,,0.00,1.000000,,2013-08-18 11:02:00,
2013-08-18 06:42:00,70.0,57.0,-100.00,ESE,110,3.0,8.0,64,0.00,,,0.00,0.000000,,2013-08-18 11:42:00,
2013-08-18 06:52:00,70.0,57.0,-100.00,ESE,110,3.0,8.0,64,0.00,,,0.00,0.000000,,2013-08-18 11:52:00,
2013-08-18 07:01:00,70.0,57.0,-100.00,ESE,110,3.0,8.0,64,0.00,,,0.00,0.000000,,2013-08-18 12:01:00,
2013-08-18 07:42:00,70.0,59.0,-100.00,SE,127,4.0,9.0,69,0.00,,,0.00,3.000000,,2013-08-18 12:42:00,
2013-08-18 07:52:00,70.0,59.0,-100.00,SE,127,4.0,9.0,69,0.00,,,0.00,3.000000,,2013-08-18 12:52:00,
2013-08-18 08:01:00,70.0,59.0,-100.00,SE,127,4.0,9.0,69,0.00,,,0.00,3.000000,,2013-08-18 13:01:00,
2013-08-18 08:42:00,73.0,62.0,-100.00,ESE,111,4.0,9.0,69,0.00,,,0.00,71.000000,,2013-08-18 13:42:00,
2013-08-18 08:52:00,73.0,62.0,-100.00,ESE,111,4.0,9.0,69,0.00,,,0.00,71.000000,,2013-08-18 13:52:00,
2013-08-18 09:01:00,73.0,62.0,-100.00,ESE,111,4.0,9.0,69,0.00,,,0.00,71.000000,,2013-08-18 14:01:00,
2013-08-18 09:42:00,78.0,65.0,-100.00,ESE,110,4.0,10.0,64,0.00,,,0.00,249.000000,,2013-08-18 14:42:00,
2013-08-18 09:53:00,78.0,65.0,-100.00,ESE,110,4.0,10.0,64,0.00,,,0.00,249.000000,,2013-08-18 14:53:00,
2013-08-18 10:01:00,78.0,65.0,-100.00,ESE,110,4.0,10.0,64,0.00,,,0.00,249.000000,,2013-08-18 15:01:00,
2013-08-18 10:43:00,82.0,65.0,-100.00,ENE,65,4.0,9.0,57,0.00,,,0.00,480.000000,,2013-08-18 15:43:00,
2013-08-18 10:54:00,82.0,65.0,-100.00,ENE,65,4.0,9.0,57,0.00,,,0.00,480.000000,,2013-08-18 15:54:00,
2013-08-18 11:03:00,82.0,65.0,-100.00,ENE,65,4.0,9.0,57,0.00,,,0.00,480.000000,,2013-08-18 16:03:00,
2013-08-18 11:42:00,85.0,64.0,-100.00,NE,55,5.0,10.0,50,0.00,,,0.00,678.000000,,2013-08-18 16:42:00,
2013-08-18 11:52:00,85.0,64.0,-100.00,NE,55,5.0,10.0,50,0.00,,,0.00,678.000000,,2013-08-18 16:52:00,
2013-08-18 12:02:00,85.0,64.0,-100.00,NE,55,5.0,10.0,50,0.00,,,0.00,678.000000,,2013-08-18 17:02:00,
2013-08-18 12:43:00,86.0,62.0,-100.00,NE,56,6.0,13.0,45,0.00,,,0.00,822.000000,,2013-08-18 17:43:00,
2013-08-18 12:52:00,86.0,62.0,-100.00,NE,56,6.0,13.0,45,0.00,,,0.00,822.000000,,2013-08-18 17:52:00,
2013-08-18 13:02:00,86.0,62.0,-100.00,NE,56,6.0,13.0,45,0.00,,,0.00,822.000000,,2013-08-18 18:02:00,
2013-08-18 13:42:00,88.0,63.0,-100.00,ESE,119,4.0,12.0,43,0.00,,,0.00,885.000000,,2013-08-18 18:42:00,
2013-08-18 13:52:00,88.0,63.0,-100.00,ESE,119,4.0,12.0,43,0.00,,,0.00,885.000000,,2013-08-18 18:52:00,
2013-08-18 14:01:00,88.0,63.0,-100.00,ESE,119,4.0,12.0,43,0.00,,,0.00,885.000000,,2013-08-18 19:01:00,
2013-08-18 14:42:00,89.0,61.0,-100.00,NE,45,6.0,11.0,40,0.00,,,0.00,903.000000,,2013-08-18 19:42:00,
2013-08-18 14:52:00,89.0,61.0,-100.00,NE,45,6.0,11.0,40,0.00,,,0.00,903.000000,,2013-08-18 19:52:00,
2013-08-18 15:02:00,89.0,61.0,-100.00,NE,45,6.0,11.0,40,0.00,,,0.00,903.000000,,2013-08-18 20:02:00,
2013-08-18 15:42:00,91.0,60.0,-100.00,NE,49,5.0,12.0,36,0.00,,,0.00,980.000000,,2013-08-18 20:42:00,
2013-08-18 15:52:00,91.0,60.0,-100.00,NE,49,5.0,12.0,36,0.00,,,0.00,980.000000,,2013-08-18 20:52:00,
2013-08-18 16:01:00,91.0,60.0,-100.00,NE,49,5.0,12.0,36,0.00,,,0.00,980.000000,,2013-08-18 21:01:00,
2013-08-18 16:42:00,92.0,60.0,-100.00,ENE,62,5.0,12.0,35,0.00,,,0.00,853.000000,,2013-08-18 21:42:00,
2013-08-18 16:53:00,92.0,60.0,-100.00,ENE,62,5.0,12.0,35,0.00,,,0.00,853.000000,,2013-08-18 21:53:00,
2013-08-18 17:03:00,92.0,60.0,-100.00,ENE,62,5.0,12.0,35,0.00,,,0.00,853.000000,,2013-08-18 22:03:00,
2013-08-18 17:42:00,92.0,59.0,-100.00,ENE,61,5.0,11.0,33,0.00,,,0.00,731.000000,,2013-08-18 22:42:00,
2013-08-18 17:52:00,92.0,59.0,-100.00,ENE,61,5.0,11.0,33,0.00,,,0.00,731.000000,,2013-08-18 22:52:00,
2013-08-18 18:02:00,92.0,59.0,-100.00,ENE,61,5.0,11.0,33,0.00,,,0.00,731.000000,,2013-08-18 23:02:00,
2013-08-18 18:42:00,92.0,59.0,-100.00,East,97,4.0,9.0,33,0.00,,,0.00,393.000000,,2013-08-18 23:42:00,
2013-08-18 18:52:00,92.0,59.0,-100.00,East,97,4.0,9.0,33,0.00,,,0.00,393.000000,,2013-08-18 23:52:00,
2013-08-18 19:02:00,92.0,59.0,-100.00,East,97,4.0,9.0,33,0.00,,,0.00,393.000000,,2013-08-19 00:02:00,
2013-08-18 19:42:00,88.0,56.0,-100.00,ENE,63,3.0,6.0,34,0.00,,,0.00,227.000000,,2013-08-19 00:42:00,
2013-08-18 19:52:00,88.0,56.0,-100.00,ENE,63,3.0,6.0,34,0.00,,,0.00,227.000000,,2013-08-19 00:52:00,
2013-08-18 20:02:00,88.0,56.0,-100.00,ENE,63,3.0,6.0,34,0.00,,,0.00,227.000000,,2013-08-19 01:02:00,
2013-08-18 20:42:00,82.0,56.0,-100.00,SSE,160,1.0,6.0,41,0.00,,,0.00,46.000000,,2013-08-19 01:42:00,
2013-08-18 20:52:00,82.0,56.0,-100.00,SSE,160,1.0,6.0,41,0.00,,,0.00,46.000000,,2013-08-19 01:52:00,
2013-08-18 21:06:00,82.0,56.0,-100.00,SSE,160,1.0,6.0,41,0.00,,,0.00,46.000000,,2013-08-19 02:06:00,
2013-08-18 22:42:00,75.0,59.0,-100.00,SSE,151,3.0,4.0,58,0.00,,,0.00,0.000000,,2013-08-19 03:42:00,
2013-08-18 22:53:00,75.0,59.0,-100.00,SSE,151,3.0,4.0,58,0.00,,,0.00,0.000000,,2013-08-19 03:53:00,
2013-08-18 23:03:00,75.0,59.0,-100.00,SSE,151,3.0,4.0,58,0.00,,,0.00,0.000000,,2013-08-19 04:03:00,
2013-08-18 23:42:00,75.0,58.0,-100.00,SE,139,3.0,5.0,56,0.00,,,0.00,0.000000,,2013-08-19 04:42:00,
2013-08-18 23:53:00,75.0,58.0,-100.00,SE,139,3.0,5.0,56,0.00,,,0.00,0.000000,,2013-08-19 04:53:00,